THORAD AGENA D DEB, 5149

Orbit data source: Space-Track

THORAD AGENA D DEB, 5149 is space debris in SSO originally from a launch on Wed, 08 Apr 1970 UTC launched from the Air Force Western Test Range (AFWTR). Debris objects in space refer to the collection of defunct objects orbiting the Earth. Examples of debris include non-operational satellites, rocket bodies, and fragments generated from explosions, collisions, or faulty payload assembly.

Loading next visibility...
Identifier
5149, 1970-025JS
Orbit
SSO
Country
Flag of USUS
Related business
Manufacturer
Unknown
Mission
Spacecraft
Bus & Motor
Unknown
Mass
Unknown
Launch date (UTC)
1970-04-08 (56 years ago)
Launch vehicle
Unknown
Launch site
Air Force Western Test Range (AFWTR)
Object type
Payload
Rocket body
Debris
Shape & HBR
Unknown shape, 0.1 m
Radar Cross Section
Small (<0.1 m²)

Expand to show TLE details & history
Last TLE update: 6 hours ago

TLE from 6 hours ago
0 THORAD AGENA D DEB
1  5149U 70025JS  26132.84219816  .00001447  00000-0  58619-3 0  9994
2  5149  99.6299 178.5525 0049825 231.9822 127.6853 14.28879743856579
Epoch: 2026-05-12T20:12Z
TLE epoch observation values (Epoch: 2026-05-12T20:12:45.921Z)
Latitude
0.00001°
Longitude
4.75039°
Altitude
820.339 km
Speed
7.432 km/s
True Right ascension
11h 54m 12s
True Declination
0° 00' 00"
Sunlit
Object was in full shadow at epoch
Visualization orbit readout
Latitude
Unknown
Longitude
Unknown
Altitude
Unknown
Speed
Unknown
Apparent Right ascension
Unknown
Apparent Declination
Unknown
Sunlit
N/A
Visualization observer readout
Local Sidereal Time
11:02:36
Azimuth
Unknown
Elevation
Unknown
Doppler factor
Unknown
Orbital elements
Apogee altitude
828.4 km
Perigee altitude
756.942 km
Semi-major axis
7,170.808 km
Eccentricity
0.00498
Inclination
99.6299°
RAAN
178.5525°
Arg. of periapsis
231.9822°
True anomaly
128.13542°
Mean anomaly
127.6853°
Eccentric anomaly
127.91053°
Mean motion
3.5743 °/min
Orbital period
100.72 mins
BSTAR
0.00058619

Documentation

Showing up to 5 results
|